Weather History for North Bend, OR

Change the Weather History Date:

Saturday, May 25, 2013

  Actual Average Record
Temperature  
Mean Temperature 53 °F 54 °F  
Max Temperature 61 °F 60 °F 84 °F (2005)
Min Temperature 45 °F 48 °F 32 °F (1920)
Degree Days  
Heating Degree Days 12 11  
Month to date heating degree days 237 310  
Since 1 July heating degree days 4217 4496  
Cooling Degree Days 0 0  
Month to date cooling degree days 4 0  
Year to date cooling degree days 4 0  
Growing Degree Days 2 (Base 50)    
Moisture  
Dew Point 50 °F    
Average Humidity 91    
Maximum Humidity 100    
Minimum Humidity 72    
Precipitation  
Precipitation 0.34 in 0.10 in 0.72 in (1960)
Month to date precipitation 3.48 2.76  
Year to date precipitation 15.82 33.54  
Sea Level Pressure  
Sea Level Pressure 30.06 in    
Wind  
Wind Speed 8 mph (South)    
Max Wind Speed 15 mph    
Max Gust Speed -    
Visibility 7 miles    
Events      
T = Trace of Precipitation, MM = Missing Value Source: NWS Daily Summary

Daily Weather History Graph

Daily Weather History Graph

Search for Another Location

Airport:

Trip Planner

Search our weather history database for the weather conditions in past years. The results will help you decide how hot, cold, wet, or windy it might be!

Date:

Astronomy

May. 25, 2013 Rise Set
Actual Time 5:43 AM PDT 8:45 PM PDT
Civil Twilight 5:09 AM PDT 9:19 PM PDT
Nautical Twilight 4:25 AM PDT 10:03 PM PDT
Astronomical Twilight 3:33 AM PDT 10:55 PM PDT
Moon 9:38 PM PDT (5/25) 6:16 AM PDT (5/25)
Length of Visible Light 16h 10m
Length of Day
15h 01m
Waxing Gibbous, 99% of the Moon is Illuminated
May 25
Waxing Gibbous
May 31
Last Quarter
Jun 8
New
Jun 16
First Quarter
Jun 23
Full

Hourly Weather History & Observations

Time (PDT) Temp. Windchill Dew Point Humidity Pressure Visibility Wind Dir Wind Speed Gust Speed Precip Events Conditions
12:15 AM 46.4 °F - 46.4 °F 100% 30.13 in 10.0 mi Calm Calm - N/A   Clear
12:35 AM 46.4 °F - 46.4 °F 100% 30.12 in 10.0 mi Calm Calm - N/A   Clear
12:55 AM 46.4 °F 43.5 °F 46.4 °F 100% 30.12 in 10.0 mi ESE 5.8 mph - N/A   Clear
1:15 AM 46.4 °F 44.3 °F 46.4 °F 100% 30.12 in 10.0 mi SE 4.6 mph - N/A   Partly Cloudy
1:35 AM 46.4 °F 45.2 °F 46.4 °F 100% 30.12 in 9.0 mi SSE 3.5 mph - N/A   Mostly Cloudy
1:55 AM 46.4 °F 44.3 °F 46.4 °F 100% 30.11 in 10.0 mi SE 4.6 mph - N/A   Overcast
2:15 AM 46.4 °F 43.5 °F 46.4 °F 100% 30.11 in 1.0 mi SE 5.8 mph - N/A   Overcast
2:35 AM 46.4 °F 42.9 °F 46.4 °F 100% 30.11 in 0.5 mi SSE 6.9 mph - N/A   Overcast
2:55 AM 46.4 °F 42.4 °F 46.4 °F 100% 30.10 in 2.5 mi SE 8.1 mph - N/A   Overcast
3:15 AM 46.4 °F 42.9 °F 44.6 °F 93% 30.10 in 0.5 mi SE 6.9 mph - N/A   Overcast
3:35 AM 46.4 °F 43.5 °F 46.4 °F 100% 30.10 in 0.5 mi SSE 5.8 mph - N/A   Overcast
3:55 AM 46.4 °F 42.9 °F 46.4 °F 100% 30.10 in 0.8 mi SE 6.9 mph - N/A   Overcast
4:15 AM 46.4 °F 42.4 °F 46.4 °F 100% 30.10 in 0.8 mi SSE 8.1 mph - N/A   Overcast
4:35 AM 46.4 °F 43.5 °F 46.4 °F 100% 30.10 in 1.2 mi SSE 5.8 mph - N/A   Overcast
4:55 AM 46.4 °F 42.9 °F 46.4 °F 100% 30.10 in 1.0 mi SE 6.9 mph - N/A   Overcast
5:15 AM 46.4 °F 43.5 °F 46.4 °F 100% 30.10 in 3.0 mi SSE 5.8 mph - N/A   Overcast
5:35 AM 44.6 °F 40.7 °F 44.6 °F 100% 30.09 in 6.0 mi SE 6.9 mph - N/A   Overcast
5:55 AM 44.6 °F 41.4 °F 44.6 °F 100% 30.09 in 9.0 mi SSE 5.8 mph - N/A   Overcast
6:15 AM 44.6 °F 40.7 °F 44.6 °F 100% 30.10 in 2.0 mi SSE 6.9 mph - N/A   Overcast
6:35 AM 44.6 °F 40.7 °F 44.6 °F 100% 30.10 in 2.5 mi SSE 6.9 mph - N/A   Overcast
6:55 AM 44.6 °F 40.7 °F 44.6 °F 100% 30.10 in 1.0 mi SE 6.9 mph - N/A   Overcast
7:15 AM 44.6 °F 40.7 °F 44.6 °F 100% 30.10 in 1.2 mi SSE 6.9 mph - N/A   Overcast
7:35 AM 44.6 °F 40.7 °F 44.6 °F 100% 30.10 in 0.5 mi SSE 6.9 mph - N/A   Overcast
7:55 AM 46.4 °F 41.9 °F 46.4 °F 100% 30.10 in 1.0 mi SE 9.2 mph - N/A   Overcast
8:15 AM 46.4 °F 41.9 °F 46.4 °F 100% 30.09 in 3.0 mi SE 9.2 mph - N/A   Overcast
8:35 AM 46.4 °F 41.1 °F 46.4 °F 100% 30.09 in 10.0 mi SSE 11.5 mph - N/A   Overcast
8:55 AM 48.2 °F - 48.2 °F 100% 30.09 in 10.0 mi SSE 8.1 mph - N/A   Mostly Cloudy
9:15 AM 50.0 °F - 48.2 °F 94% 30.09 in 10.0 mi SE 8.1 mph - N/A   Scattered Clouds
9:35 AM 51.8 °F - 50.0 °F 94% 30.09 in 10.0 mi SSE 5.8 mph - N/A   Scattered Clouds
9:55 AM 53.6 °F - 50.0 °F 88% 30.08 in 10.0 mi SE 6.9 mph - N/A   Scattered Clouds
10:15 AM 55.4 °F - 50.0 °F 82% 30.08 in 10.0 mi South 5.8 mph - N/A   Partly Cloudy
10:35 AM 57.2 °F - 51.8 °F 82% 30.08 in 10.0 mi SSE 5.8 mph - N/A   Partly Cloudy
10:55 AM 57.2 °F - 48.2 °F 72% 30.08 in 10.0 mi Calm Calm - N/A   Mostly Cloudy
11:15 AM 57.2 °F - 50.0 °F 77% 30.08 in 10.0 mi WSW 8.1 mph - N/A   Mostly Cloudy
11:35 AM 57.2 °F - 51.8 °F 82% 30.08 in 10.0 mi West 10.4 mph - N/A   Partly Cloudy
11:55 AM 57.2 °F - 50.0 °F 77% 30.08 in 10.0 mi West 12.7 mph - N/A   Clear
12:15 PM 57.2 °F - 50.0 °F 77% 30.07 in 10.0 mi West 11.5 mph - N/A   Clear
12:35 PM 57.2 °F - 50.0 °F 77% 30.07 in 10.0 mi West 13.8 mph - N/A   Clear
12:55 PM 57.2 °F - 48.2 °F 72% 30.07 in 10.0 mi West 12.7 mph - N/A   Clear
1:35 PM 59.0 °F - 50.0 °F 72% 30.06 in 10.0 mi West 15.0 mph - N/A   Unknown
1:55 PM 60.8 °F - 51.8 °F 72% 30.06 in 10.0 mi West 15.0 mph - N/A   Mostly Cloudy
2:15 PM 59.0 °F - 51.8 °F 77% 30.06 in 10.0 mi West 13.8 mph - N/A   Mostly Cloudy
2:35 PM 60.8 °F - 51.8 °F 72% 30.05 in 10.0 mi West 12.7 mph - N/A   Mostly Cloudy
2:55 PM 60.8 °F - 51.8 °F 72% 30.05 in 10.0 mi West 12.7 mph - N/A   Mostly Cloudy
3:15 PM 57.2 °F - 51.8 °F 82% 30.05 in 10.0 mi WSW 13.8 mph - N/A   Clear
3:35 PM 59.0 °F - 51.8 °F 77% 30.05 in 10.0 mi WSW 10.4 mph - N/A   Clear
3:55 PM 57.2 °F - 51.8 °F 82% 30.05 in 10.0 mi West 9.2 mph - N/A   Clear
4:15 PM 57.2 °F - 51.8 °F 82% 30.04 in 10.0 mi West 10.4 mph - N/A   Clear
4:35 PM 59.0 °F - 51.8 °F 77% 30.04 in 10.0 mi WSW 10.4 mph - N/A   Clear
4:55 PM 59.0 °F - 51.8 °F 77% 30.04 in 10.0 mi West 11.5 mph - N/A   Mostly Cloudy
5:15 PM 57.2 °F - 51.8 °F 82% 30.03 in 10.0 mi WSW 11.5 mph - N/A   Mostly Cloudy
5:35 PM 59.0 °F - 51.8 °F 77% 30.03 in 10.0 mi WSW 10.4 mph - N/A   Mostly Cloudy
5:55 PM 57.2 °F - 51.8 °F 82% 30.03 in 10.0 mi WSW 9.2 mph - N/A   Overcast
6:15 PM 57.2 °F - 51.8 °F 82% 30.02 in 10.0 mi SSW 9.2 mph - N/A   Overcast
6:35 PM 55.4 °F - 51.8 °F 88% 30.02 in 10.0 mi SW 5.8 mph - N/A   Overcast
6:55 PM 55.4 °F - 51.8 °F 88% 30.01 in 10.0 mi South 6.9 mph - N/A   Overcast
7:15 PM 55.4 °F - 51.8 °F 88% 30.01 in 10.0 mi SSW 5.8 mph - N/A   Overcast
7:35 PM 55.4 °F - 53.6 °F 94% 30.01 in 10.0 mi Calm Calm - 0.01 in   Mostly Cloudy
7:55 PM 55.4 °F - 53.6 °F 94% 30.01 in 9.0 mi South 6.9 mph - 0.02 in   Overcast
8:15 PM 53.6 °F - 53.6 °F 100% 30.00 in 10.0 mi Calm Calm - 0.02 in   Overcast
8:35 PM 53.6 °F - 53.6 °F 100% 30.00 in 8.0 mi Calm Calm - 0.04 in   Overcast
8:55 PM 53.6 °F - 53.6 °F 100% 30.00 in 8.0 mi South 3.5 mph - 0.07 in   Overcast
9:15 PM 53.6 °F - 53.6 °F 100% 30.00 in 5.0 mi South 3.5 mph - 0.01 in   Overcast
9:35 PM 53.6 °F - 53.6 °F 100% 30.00 in 5.0 mi South 4.6 mph - 0.04 in   Overcast
9:55 PM 53.6 °F - 53.6 °F 100% 30.00 in 4.0 mi South 4.6 mph - 0.07 in   Overcast
10:15 PM 53.6 °F - 53.6 °F 100% 30.00 in 9.0 mi South 4.6 mph - 0.03 in   Overcast
10:35 PM 53.6 °F - 53.6 °F 100% 30.01 in 5.0 mi South 3.5 mph - 0.08 in   Overcast
10:55 PM 53.6 °F - 53.6 °F 100% 30.00 in 5.0 mi South 4.6 mph - 0.09 in   Overcast
11:15 PM 53.6 °F - 53.6 °F 100% 30.00 in 5.0 mi South 5.8 mph - 0.04 in   Overcast
11:35 PM 53.6 °F - 53.6 °F 100% 30.00 in 9.0 mi South 5.8 mph - 0.08 in   Overcast
11:55 PM 53.6 °F - 53.6 °F 100% 30.00 in 10.0 mi South 8.1 mph - 0.08 in   Overcast